metlocid,date_time,avg_soilt0cm,std_soilt0cm,min_soilt0cm,max_soilt0cm,n_soilt0cm,avg_soilt5cm,std_soilt5cm,min_soilt5cm,max_soilt5cm,n_soilt5cm,avg_soilt10cm,std_soilt10cm,min_soilt10cm,max_soilt10cm,n_soilt10cm,n_comments
EXEM,11/1/97,1.481516857,4.733755537,-7.43,11.14,890,,,,,0,,,,,0,0
EXEM,12/1/97,2.094374999,5.035555787,-7.6,15.53,2976,,,,,0,,,,,0,0
EXEM,1/1/98,2.118361046,4.918861283,-10.01,15.73,2947,,,,,0,,,,,0,1756
EXEM,2/1/98,-4.806294644,4.484523671,-11.87,8.31,2688,,,,,0,,,,,0,2688
EXEM,3/1/98,-17.35168985,3.101328824,-24.51,-10.02,2947,,,,,0,,,,,0,2947
EXEM,4/1/98,-27.79767099,4.929439184,-36.83,-19.02,2851,,,,,0,,,,,0,2851
EXEM,5/1/98,-28.00552419,3.320759394,-34.62,-19.34,2976,,,,,0,,,,,0,2976
EXEM,6/1/98,-24.37731599,2.663685774,-30.03,-19.06,2880,,,,,0,,,,,0,2880
EXEM,7/1/98,-29.54797379,3.94671792,-37.78,-21.07,2976,,,,,0,,,,,0,2976
EXEM,8/1/98,-32.15062162,4.246253684,-38.07,-22.79,2976,,,,,0,,,,,0,2976
EXEM,9/1/98,-34.35422915,3.416885702,-40.77,-21.73,2880,,,,,0,,,,,0,2880
EXEM,10/1/98,-21.95370969,2.842531368,-29.53,-14.19,2976,,,,,0,,,,,0,2976
EXEM,11/1/98,-10.65285763,6.378530126,-24.87,8.26,2880,,,,,0,,,,,0,2880
EXEM,12/1/98,3.628131722,5.343157663,-7.23,16.28,2976,,,,,0,,,,,0,2976
EXEM,1/1/99,4.011292841,4.601817947,-4.51,14.31,2947,,,,,0,,,,,0,2029
EXEM,2/1/99,-4.721011908,6.67568207,-19.54,10.97,2688,,,,,0,,,,,0,0
EXEM,3/1/99,-19.42720093,5.611964058,-30.5,-9.12,2976,,,,,0,,,,,0,0
EXEM,4/1/99,-29.97455903,5.971434048,-39.42,-14.51,2880,,,,,0,,,,,0,0
EXEM,5/1/99,-34.75440186,5.846578895,-44.61,-18.47,2976,,,,,0,,,,,0,0
EXEM,6/1/99,-29.449184,5.334068973,-37.69,-12.55,2880,,,,,0,,,,,0,0
EXEM,7/1/99,-27.49269153,6.097640875,-36.87,-12.14,2976,,,,,0,,,,,0,0
EXEM,8/1/99,-34.04840722,4.261632973,-40.14,-23.76,2976,,,,,0,,,,,0,0
EXEM,9/1/99,-28.34340623,5.292355225,-39.67,-13.27,2880,,,,,0,,,,,0,0
EXEM,10/1/99,-19.36277218,7.750435558,-30.16,0.46,2976,,,,,0,,,,,0,0
EXEM,11/1/99,-3.566440965,6.911250366,-19.89,13.87,2880,,,,,0,,,,,0,0
EXEM,12/1/99,4.576538981,5.679489155,-6.91,17.19,2976,,,,,0,,,,,0,0
EXEM,1/1/00,3.557284947,5.462201857,-8.56,17.03,2976,,,,,0,,,,,0,0
EXEM,2/1/00,-5.540341235,6.091727026,-18.71,10.81,2784,,,,,0,,,,,0,0
EXEM,3/1/00,-16.29757057,5.118379509,-27.28,-1.72,2976,,,,,0,,,,,0,0
EXEM,4/1/00,-24.81282636,6.652593079,-35.87,-9.35,2880,,,,,0,,,,,0,0
EXEM,5/1/00,-29.49634074,5.705445824,-39.85,-13.67,2976,,,,,0,,,,,0,0
EXEM,6/1/00,-34.53076388,9.969348155,-46.02,-7.97,2880,,,,,0,,,,,0,0
EXEM,7/1/00,-30.88358871,7.722889705,-46.12,-11.06,2976,,,,,0,,,,,0,0
EXEM,8/1/00,-33.42800738,7.927875371,-45.29,-13.12,2976,,,,,0,,,,,0,0
EXEM,9/1/00,-32.33485762,7.836081392,-44.64,-10.43,2880,,,,,0,,,,,0,0
EXEM,10/1/00,-21.00690188,7.008652486,-35.18,0.71,2976,,,,,0,,,,,0,0
EXEM,11/1/00,-3.871125385,6.793736591,-25.97,14.74,2879,,,,,0,,,,,0,1
EXEM,12/1/00,3.84862231,5.842598011,-5.49,17.41,2976,,,,,0,,,,,0,0
EXEM,1/1/01,1.01955981,5.978699001,-10.26,14.93,2976,,,,,0,,,,,0,0
EXEM,2/1/01,-3.983731396,6.262983232,-20.03,12.72,2688,,,,,0,,,,,0,0
EXEM,3/1/01,-20.68478831,6.536083581,-33.05,0.51,2976,,,,,0,,,,,0,0
EXEM,4/1/01,-27.33997221,5.524793697,-39.19,-16.4,2880,,,,,0,,,,,0,0
EXEM,5/1/01,-30.38674732,9.087444053,-44.73,-8.21,2976,,,,,0,,,,,0,0
EXEM,6/1/01,-29.41383333,7.07018678,-42.54,-11.48,2880,,,,,0,,,,,0,0
EXEM,7/1/01,-31.54955311,6.778777228,-46.37,-13.61,2976,,,,,0,,,,,0,0
EXEM,8/1/01,-41.82886423,5.262590697,-50.08,-29.71,2976,,,,,0,,,,,0,0
EXEM,9/1/01,-34.46236459,6.642689065,-44.16,-17.01,2880,,,,,0,,,,,0,0
EXEM,10/1/01,-19.73484206,8.328407699,-38.76,-1.31,2976,,,,,0,,,,,0,0
EXEM,11/1/01,-3.126520836,7.655919912,-23.91,14.11,2880,,,,,0,,,,,0,0
EXEM,12/1/01,6.216643139,6.439277936,-7.02,23.98,2976,,,,,0,,,,,0,0
EXEM,1/1/02,5.164952952,6.433659848,-8.62,23.46,2976,,,,,0,,,,,0,0
EXEM,2/1/02,-4.060796122,6.716336465,-20.78,12.85,2688,,,,,0,,,,,0,0
EXEM,3/1/02,-16.82209342,5.61270609,-29.53,1.8,2976,,,,,0,,,,,0,0
EXEM,4/1/02,-26.42942706,5.70330667,-35.73,-10.49,2880,,,,,0,,,,,0,0
EXEM,5/1/02,-24.96348117,7.097927945,-39.61,-8.86,2976,,,,,0,,,,,0,0
EXEM,6/1/02,-36.03965972,6.685180898,-47.32,-13.2,2880,,,,,0,,,,,0,0
EXEM,7/1/02,-38.66908265,6.123102141,-45.37,-19.15,2976,,,,,0,,,,,0,0
EXEM,8/1/02,-39.44839715,6.475988508,-48.89,-18.07,2976,,,,,0,,,,,0,0
EXEM,9/1/02,-30.73727083,4.637944775,-39.18,-14.44,2880,,,,,0,,,,,0,0
EXEM,10/1/02,-22.37696572,5.804849335,-34.15,-6.22,2976,,,,,0,,,,,0,0
EXEM,11/1/02,-10.0469757,6.376099096,-19.24,9.3,2880,,,,,0,,,,,0,0
EXEM,12/1/02,0.993511426,5.178813582,-10.22,14.27,2976,,,,,0,,,,,0,0
EXEM,1/1/03,3.648976031,5.305257852,-9.25,18.64,2920,0.591428565,3.16186655,-4,5.75,231,0.306277054,1.820118723,-2.03,3.57,231,56
EXEM,2/1/03,-4.875193449,5.887056913,-17.46,11.15,2688,-4.413199406,3.364594929,-11.49,4.17,2688,-4.269155502,2.630024796,-9.88,1.75,2688,0
EXEM,3/1/03,-19.31643481,5.454807368,-32.2,-6.85,2976,-16.95448252,3.87964063,-25.47,-8.12,2976,-15.86370632,3.405249332,-22.92,-7.36,2976,0
EXEM,4/1/03,-27.47800694,4.301275661,-32.94,-15.57,2880,-25.31914235,3.490049118,-30.15,-16.5,2880,-23.73158682,2.690234716,-27.63,-16.43,2880,0
EXEM,5/1/03,-26.02939517,5.853021665,-34.18,-7.02,2976,-25.21538308,4.542379133,-31.37,-11.93,2976,-24.7066969,3.222097941,-28.77,-15.06,2976,0
EXEM,6/1/03,-31.14700345,4.707941725,-40.42,-19.72,2880,-29.68723958,3.626766441,-37.26,-22.11,2880,-28.39539236,2.751707921,-34.38,-23.22,2880,0
EXEM,7/1/03,-31.02578295,5.083515272,-40.71,-21.75,2976,-30.04211355,4.019454381,-37.81,-23.01,2976,-29.44358871,2.796740698,-34.98,-24.18,2976,0
EXEM,8/1/03,-35.94090391,4.234614827,-42.65,-22.17,2976,-34.02096769,3.38061142,-38.97,-23.88,2976,-32.62411962,2.672457915,-36.57,-25.42,2976,0
EXEM,9/1/03,-29.25971183,7.6691268,-43.13,-14.23,2880,-29.12461806,6.106371648,-39.6,-18.95,2880,-29.46063196,4.806832512,-37.23,-21.21,2880,0
EXEM,10/1/03,-17.87794354,5.919796583,-32.15,2.54,2976,-18.47068885,4.116329463,-29.33,-7.01,2976,-19.91976814,3.291821245,-28.43,-10.59,2976,0
EXEM,11/1/03,-5.187034716,6.981273822,-23.21,11.78,2880,-7.365968748,4.047155885,-17.69,2.96,2880,-8.639361119,3.656628472,-17.54,-0.89,2880,0
EXEM,12/1/03,3.338494623,5.920763964,-9.25,21.97,2976,1.286145832,3.649545081,-5.55,11.56,2976,-0.059022178,2.895255249,-6.27,7.63,2976,0
EXEM,1/1/04,3.324573263,7.326454471,-10.7,23.53,2976,2.115218412,3.568731566,-4.96,12.1,2976,1.769657258,2.439548963,-2.68,8.98,2976,0
EXEM,2/1/04,-5.403965516,6.68457611,-18.64,11.75,2784,-4.728854162,3.739273324,-12.1,4.81,2784,-4.365754311,2.925609354,-10.33,2.62,2784,0
EXEM,3/1/04,-21.77823253,5.4838271,-31.23,-6.07,2976,-19.22514112,4.102725373,-25.58,-8.71,2976,-17.45114248,3.751672115,-22.6,-8.62,2976,0
EXEM,4/1/04,-27.25462498,2.955224651,-33.53,-17.02,2880,-25.67141317,2.254395607,-30.15,-19.49,2880,-24.17429514,1.760580772,-27.54,-19.7,2880,0
EXEM,5/1/04,-31.23728494,6.625743696,-41.68,-11.88,2976,-29.35728829,5.152388471,-37.94,-14.2,2976,-27.85800738,3.833731471,-34.95,-17.53,2976,0
EXEM,6/1/04,-29.57734377,7.744968539,-41.72,-8.6,2880,-28.60085761,5.376002159,-37.7,-14.98,2880,-28.08382292,4.207403025,-35.17,-17.92,2880,0
EXEM,7/1/04,-43.68401878,6.239947211,-52.92,-18.05,2976,-40.24396839,3.977903051,-46.42,-27.55,2976,-38.7297278,3.153492274,-43.92,-29.55,2976,0
EXEM,8/1/04,-38.95724799,6.856739526,-50.19,-12.25,2976,-37.914459,4.462774784,-45.03,-20.61,2976,-37.3985887,3.462282902,-43.16,-24.34,2976,0
EXEM,9/1/04,-33.84670136,3.754194528,-43.85,-19.15,2880,-32.81105205,2.366677858,-38.83,-25.54,2880,-32.70770482,1.69203329,-37.3,-28.42,2880,0
EXEM,10/1/04,-22.13567541,8.576279361,-41.1,-6.72,2976,-22.28397512,6.825479186,-37.49,-9.92,2976,-23.59033266,5.812082615,-35.72,-14.57,2976,0
EXEM,11/1/04,-4.707826391,7.038271616,-23.95,11.68,2880,-5.358024308,6.357924066,-19.45,6.31,2880,-7.460395824,6.040926218,-19.6,1.57,2880,0
EXEM,12/1/04,4.867345431,6.227214684,-4.91,22.4,2976,2.806864918,3.553575038,-3.38,12.06,2976,1.449082663,2.512612864,-3.69,7.59,2976,0
EXEM,1/1/05,6.224780889,6.227123139,-3.08,19.75,251,3.940916336,3.224207994,-0.22,11.02,251,3.230119528,2.518239949,0.13,8.36,251,0
EXEM,12/1/05,,,,,0,,,,,0,,,,,0,1
EXEM,11/1/06,,,,,0,,,,,0,,,,,0,326
EXEM,12/1/06,,,,,0,,,,,0,,,,,0,2976
EXEM,1/1/07,5.206371498,5.825971953,-4.81,18.19,1965,4.02104888,2.919687338,-0.48,10.45,1964,3.45026477,2.254749953,-0.14,8.57,1964,1011
EXEM,2/1/07,-5.617946423,6.389120844,-20.94,13.61,2688,-4.555837057,4.432388961,-14.92,7.73,2688,-4.078653271,4.024699952,-12.99,5.79,2688,0
EXEM,3/1/07,-18.38845765,5.109368036,-28.56,-2.34,2976,-16.88914987,3.222756619,-22.66,-8.72,2976,-15.73646842,2.751013647,-21.09,-9.65,2976,0
EXEM,4/1/07,-26.73504515,5.617840754,-37.16,-11.51,2880,-24.95550347,3.990462559,-32.29,-15.42,2880,-23.88387846,3.040591646,-29.45,-17.19,2880,0
EXEM,5/1/07,-26.90568214,4.62941194,-35.21,-13.68,2976,-25.98480511,3.320557532,-31.86,-18.6,2976,-25.43375671,2.535557814,-30.11,-20.7,2976,0
EXEM,6/1/07,-27.879875,7.518923783,-43.1,-7.88,2880,-26.59152779,5.381917884,-38.59,-13.77,2880,-26.0758368,4.321826568,-36.31,-16.6,2880,0
EXEM,7/1/07,-30.11406587,6.759905892,-40.68,-8.69,2976,-29.05167673,4.90778653,-36.51,-13.7,2976,-28.75716061,3.859029698,-34.77,-16.35,2976,0
EXEM,8/1/07,-31.23029906,6.663881807,-43.21,-8.86,2976,-30.16952954,4.748652419,-38.82,-16.95,2976,-29.9757258,3.960036718,-37.18,-19.53,2976,0
EXEM,9/1/07,-26.0006493,5.612455263,-35.99,-8.58,2880,-25.74470835,4.107884041,-33.5,-15.02,2880,-25.88917015,3.537974289,-32.29,-17.01,2880,0
EXEM,10/1/07,-21.11191195,5.720533149,-35.59,-2.98,2976,-20.86714047,3.853337216,-31.54,-11.89,2976,-21.11102823,3.342528898,-30.23,-13.58,2976,0
EXEM,11/1/07,-13.26157293,5.397748706,-24.44,-2.33,2880,-13.97753123,4.743521828,-22.97,-4.93,2880,-15.17258681,4.119256285,-22.53,-7.54,2880,0
EXEM,12/1/07,3.397530241,7.57977863,-10.79,23.57,2976,1.754741262,4.680642609,-7.28,13.21,2976,0.197745296,4.871140668,-8.81,10.28,2976,0
EXEM,1/1/08,3.782906586,6.41618722,-9.69,20.02,2976,2.966159273,3.136259707,-2.93,11.91,2976,2.479119624,2.396839298,-1.47,9.6,2976,0
EXEM,2/1/08,-5.539838363,5.969445212,-17.85,12.64,2784,-5.791038068,3.514371697,-12.87,2.87,2784,-5.379694684,3.098377713,-11.24,1.69,2784,0
EXEM,3/1/08,-17.51455981,7.134613112,-32.4,2.21,2976,-16.0924328,5.452035426,-27.62,-5.51,2976,-15.22901211,4.762194552,-25.05,-6.49,2976,0
EXEM,4/1/08,-25.78535764,4.101931356,-33.52,-15.18,2880,-24.19089236,2.933452284,-29.76,-17.6,2880,-23.38050693,2.169598686,-27.8,-19.04,2880,0
EXEM,5/1/08,-31.94155578,5.558312474,-42.14,-14.91,2976,-29.77663643,4.450558781,-38.2,-17.68,2976,-28.55978159,3.773641525,-35.62,-19.15,2976,0
EXEM,6/1/08,-24.2892882,4.583571854,-35.73,-13.65,2880,-23.73009722,4.076650825,-33.98,-13.54,2880,-23.75488888,3.328748325,-32.44,-15.74,2880,0
EXEM,7/1/08,-35.83829972,5.487092739,-43.1,-20.6,2976,-34.27995629,4.542311568,-40.77,-22.35,2976,-33.36317876,3.599965634,-38.7,-23.95,2976,0
EXEM,8/1/08,-40.73033266,4.28579836,-47.72,-27,2976,-39.06241598,3.896166596,-45.36,-27.33,2976,-37.90694227,3.502165474,-43.43,-28.28,2976,0
EXEM,9/1/08,-26.76231944,7.297004056,-44.14,-10.53,2880,-25.98649653,6.751450875,-42.26,-13.33,2880,-26.85270834,6.082942081,-40.98,-16.59,2880,0
EXEM,10/1/08,-19.47979168,6.142894489,-31.63,-0.14,2976,-19.73624663,4.084108495,-28.76,-8.64,2976,-20.6170195,3.170866661,-27.57,-12.96,2976,0
EXEM,11/1/08,-4.389218746,8.079946357,-23.49,16.34,2880,-7.643968742,4.506082814,-19.14,2.1,2880,-8.707815974,4.144985975,-18.46,-0.55,2880,0
EXEM,12/1/08,6.596121018,7.144543561,-7.17,23.1,2975,2.832988237,3.597414281,-3.88,12.29,2975,1.666675633,2.744253972,-3.62,8.98,2975,1
EXEM,1/1/09,4.773897845,6.216180155,-7.5,21.23,2976,2.47639449,3.119618961,-3.44,11.2,2976,1.911179436,2.154143647,-1.96,8.01,2976,0
EXEM,2/1/09,-6.344906994,6.317868205,-17.13,13.82,2688,-6.51912574,4.874270406,-16.46,5.15,2688,-5.957816217,4.266264024,-14.22,2.68,2688,0
EXEM,3/1/09,-19.54241599,4.700693642,-27.12,-6.3,2976,-18.42796371,4.430853031,-25.67,-7.34,2976,-17.18528898,3.887208389,-23.2,-8.58,2976,0
EXEM,4/1/09,-21.84838889,5.551995003,-35.74,-7.71,2880,-21.44550697,4.41905739,-32.25,-11.11,2880,-20.82023263,3.380645686,-29.54,-13.59,2880,0
EXEM,5/1/09,-26.37248321,3.888146221,-32.09,-18.54,2976,-25.80615928,3.707361755,-31.36,-18.79,2976,-24.41309813,3.096127705,-29.15,-18.96,2976,0
EXEM,6/1/09,-29.10656595,3.951205405,-37.29,-20.44,2880,-28.96304165,3.60538164,-36.47,-21.26,2880,-27.69569788,2.452574817,-32.76,-22.63,2880,0
EXEM,7/1/09,-30.20603158,3.580268185,-37.16,-20.07,2976,-29.87092068,3.256698805,-36.07,-22.13,2976,-28.65309475,2.31305782,-32.95,-24.04,2976,0
EXEM,8/1/09,-31.58606517,4.455208138,-39.49,-20.99,2976,-31.33726812,3.980623939,-38.55,-23.03,2976,-30.23975133,2.855517932,-35.63,-24.4,2976,0
EXEM,9/1/09,-30.90501387,6.088086151,-40.77,-12.91,2880,-30.86268401,4.969857687,-39.5,-18.63,2880,-30.54295137,3.424407091,-36.45,-22.25,2880,0
EXEM,10/1/09,-21.17227487,6.77846043,-31.22,2.06,2976,-21.89168012,4.594395961,-29.94,-9.49,2976,-22.802211,3.457795903,-28.92,-14.93,2976,0
EXEM,11/1/09,-7.449020829,5.304500818,-22.13,8.85,2880,-7.200569443,4.837920949,-18.65,2.37,2880,-9.402392355,4.452081,-18.75,-0.77,2880,0
EXEM,12/1/09,6.037664648,6.36533291,-6.07,21.77,2976,3.062059815,3.355555269,-2.68,11.13,2976,1.961461691,2.358883195,-2.46,8.06,2976,0
EXEM,1/1/10,4.824169965,6.086792386,-5.14,20.18,1012,2.46721344,3.184358407,-2.7,10.72,1012,1.791235178,2.264456875,-1.2,7.44,1012,0
EXEM,11/1/10,1.027309176,7.538814793,-13.34,16.54,2070,-3.013845409,3.435107629,-10.12,4.61,2070,-4.686314013,2.21869455,-10.47,-0.33,2070,0
EXEM,12/1/10,7.105047036,7.508391428,-10.99,24.74,2976,3.294401883,4.319543971,-7.55,12.25,2976,1.541223117,3.294987382,-6.5,7.52,2976,0
EXEM,1/1/11,0.971606183,5.642024384,-9.81,19.75,2976,1.562308465,3.981070939,-6.22,12.32,2976,0.965188173,2.839187461,-4.97,8.67,2976,0
EXEM,2/1/11,-6.01026414,4.997800208,-19.54,7.35,2688,-4.915398065,3.666958906,-13.62,4.87,2688,-4.651201632,2.805420127,-11.48,2.32,2688,0
EXEM,3/1/11,-19.03927756,5.66074666,-30.64,-4.39,2976,-16.95745633,4.178504286,-25.58,-8.95,2976,-15.69527554,3.626866649,-22.89,-8.97,2976,0
EXEM,4/1/11,-24.54560071,5.946212789,-34.6,-11.16,2880,-23.08633334,4.679019231,-31.24,-10.68,2880,-21.92164932,3.25500868,-27.55,-13.83,2880,0
EXEM,5/1/11,-29.72051746,7.072181684,-42.1,-8.26,2976,-28.54519823,4.971974603,-37.64,-15.54,2976,-27.22904234,3.474076111,-33.85,-17.95,2976,0
EXEM,6/1/11,-25.71283681,6.489949828,-37.3,-12.36,2880,-25.31566664,5.411060111,-35.57,-15.82,2880,-24.58338195,3.981763278,-32.01,-17.61,2880,0
EXEM,7/1/11,-26.70635416,6.368868933,-38.62,-12.01,2976,-26.52106519,5.261140795,-36.93,-16.79,2976,-26.19572581,3.728104706,-33.65,-19.78,2976,0
EXEM,8/1/11,-29.67434136,9.101991349,-45.37,-8.56,2976,-28.72017132,7.436507487,-41.85,-11.41,2976,-28.00787294,5.680299293,-38.27,-14.9,2976,0
EXEM,9/1/11,-26.73015974,5.40468329,-34.82,-9.73,2880,-27.21796527,5.090833493,-37.19,-14.48,2880,-26.61830557,3.72710733,-33.8,-17.41,2880,0
EXEM,10/1/11,-23.47045363,3.236462497,-31.79,-16.16,2976,-23.14367271,3.544400592,-32.97,-15.32,2976,-23.63128358,2.683300871,-30.82,-18.24,2976,0
EXEM,11/1/11,-6.255711803,8.151430149,-20.38,17.61,2880,-6.426118052,6.399216384,-19.77,9.32,2880,-8.665524313,5.989322597,-20.11,4.68,2880,0
EXEM,12/1/11,5.534828629,6.12260431,-4.78,20.98,2976,3.364166666,4.022622276,-3.2,13.24,2976,1.985635083,2.635004086,-1.63,9.06,2976,0
EXEM,1/1/12,4.785601483,6.149501386,-7.22,18.58,2976,3.087254705,3.56572845,-3.37,11.06,2976,2.34714718,2.331486236,-1.91,7.53,2976,0
EXEM,2/1/12,-3.946408041,6.224540814,-16.05,12.35,2784,-4.058653016,4.044236332,-12.77,5.9,2784,-3.674220549,3.237836844,-10.68,3.73,2784,0
EXEM,3/1/12,-17.5062332,5.53945184,-29.73,-0.63,2976,-16.62079638,3.407568772,-24.74,-9.06,2976,-15.36420365,2.664063426,-21.3,-10.29,2976,0
EXEM,4/1/12,-25.82373609,6.442258996,-37.75,-8.45,2880,-23.69682985,4.268869966,-31.63,-12.81,2880,-22.36805555,3.164521277,-28.21,-14.96,2880,0
EXEM,5/1/12,-21.64698254,5.689706284,-33.92,-10.45,2976,-20.53756385,5.375649999,-30.45,-8.65,2976,-20.26332998,4.15490518,-27.91,-10.96,2976,0
EXEM,6/1/12,-31.01351384,5.561581804,-39.54,-11.96,2880,-29.52062844,4.298864496,-36.11,-15.9,2880,-28.26243055,3.265404317,-33.19,-17.95,2880,0
EXEM,7/1/12,-35.03444217,5.18773968,-44.19,-23.4,2976,-33.77951275,3.991307291,-41.02,-27.2,2976,-32.75327619,3.11245488,-38.65,-27.77,2976,0
EXEM,8/1/12,-31.47238238,5.654570431,-41.29,-17.72,2976,-30.94244959,5.436963377,-39.99,-17.9,2976,-30.41938507,4.231367892,-37.77,-21.09,2976,0
EXEM,9/1/12,-28.84094445,3.707397715,-36.83,-20.84,2880,-28.25391317,3.386451581,-35.57,-20.89,2880,-28.08932292,2.459540981,-33.55,-22.78,2880,0
EXEM,10/1/12,-20.88342742,4.047223259,-33.13,-11.59,2976,-20.31840726,3.519371362,-31.26,-11.92,2976,-21.30146506,2.755094514,-29.84,-15.69,2976,0
EXEM,11/1/12,-10.08940088,7.379225772,-21.9,9.75,2053,-10.0625962,5.679979738,-20.21,1.68,2053,-12.02658061,4.945065799,-20.08,-2.17,2053,0
EXEM,1/1/13,4.868369752,6.328191913,-7.83,20.75,2975,3.012067227,3.651178003,-3.83,12.4,2975,2.303431935,2.530296739,-1.51,8.59,2975,2975
EXEM,2/1/13,-6.004828871,2.170492542,-10.48,-1.46,2688,-5.844058781,1.951373588,-9.78,-1.38,2688,-5.573630951,1.87790728,-8.95,-1.46,2688,2688
EXEM,3/1/13,-16.24385416,5.626298135,-30.43,-9.58,2976,-15.49946571,5.345155837,-28.57,-9.3,2976,-14.35696573,4.553551917,-24.81,-8.66,2976,2976
EXEM,4/1/13,-30.07756595,4.217899612,-37.91,-18.91,2880,-28.95005208,3.79699784,-35.89,-21.73,2880,-27.08935068,3.198830196,-33.16,-20.77,2880,2880
EXEM,5/1/13,-26.03008439,3.167603599,-32.03,-18.66,2725,-25.49734312,2.418380657,-29.61,-20.26,2725,-24.89876329,1.718050104,-27.82,-21.11,2725,2725
EXEM,6/1/13,-28.98280901,3.300673848,-36.33,-22.7,2880,-28.40408679,2.841250799,-34.72,-23.15,2880,-27.48505555,2.072553833,-32.04,-23.91,2880,2880
EXEM,7/1/13,-31.33568542,2.449805986,-37.14,-24.99,2976,-30.48866265,2.109607429,-35.4,-25.03,2976,-29.42210346,1.720893056,-33.28,-24.96,2976,2976
EXEM,8/1/13,-33.27402215,3.671879822,-40.39,-24.14,2976,-32.76613238,3.259169843,-39.29,-25.95,2976,-31.74126344,2.473552019,-36.64,-26.8,2976,2976
EXEM,9/1/13,-27.20606666,3.695019325,-34.18,-18.14,2100,-27.31293333,3.420866726,-33.16,-18.62,2100,-27.56162382,2.573728009,-31.62,-20.95,2100,2100
EXEM,10/1/13,-21.85258065,2.945543302,-28.86,-15.32,2976,-20.96923722,2.777402101,-28.02,-14.95,2976,-21.71389785,2.175033602,-26.84,-17.56,2976,2976
EXEM,11/1/13,-9.810333332,8.650538716,-22.98,17.03,2880,-10.75748264,6.699058717,-21.39,7.69,2880,-12.52815277,5.972980991,-21.14,2.58,2880,2880
EXEM,12/1/13,7.244267475,6.501821446,-4.51,23.51,2976,4.060184816,3.728611337,-2.16,13.32,2976,2.436475135,2.441436796,-1.88,8.54,2976,2976
EXEM,1/1/14,9.195799614,6.576517638,-3.59,21.71,1038,6.119325626,3.78252054,-0.88,14.04,1038,4.570799618,2.348639906,-0.45,9.29,1038,1038
EXEM,2/1/14,-3.537473959,5.92903685,-19.18,11.92,2688,-3.467154011,3.684723368,-14.3,4.26,2688,-3.258325894,3.163912513,-12.21,2.2,2688,2688
EXEM,3/1/14,-17.81908936,6.329649108,-31.7,-1.13,2976,-16.34549731,4.816987424,-27.8,-4.91,2976,-15.33905578,4.237370743,-25.73,-5.69,2976,2976
EXEM,4/1/14,-27.30647568,5.904768462,-39.6,-8.44,2880,-25.66984721,4.439456823,-35.34,-12.86,2880,-24.60982638,3.721247413,-32.97,-14.19,2880,2880
EXEM,5/1/14,-24.41586691,7.200807381,-40.72,-7.8,2976,-24.0279402,5.719422847,-36.51,-11.99,2976,-23.76338037,4.877272934,-34.22,-13.91,2976,2976
EXEM,6/1/14,-31.83898264,5.555900462,-41.66,-12.82,2880,-30.04876043,4.093540584,-37.32,-16.76,2880,-29.14798956,3.458976962,-35.38,-18.11,2880,2880
EXEM,7/1/14,-40.08388776,7.620256083,-47.87,-9.76,2976,-37.98427757,5.413037372,-44.13,-18.49,2976,-36.79373317,4.392398801,-42.08,-21.66,2976,2976
EXEM,8/1/14,-26.59180442,7.816103705,-45.73,-11.55,2976,-27.09935485,6.168339031,-42.44,-17.28,2976,-27.49297041,5.387835214,-40.71,-18.84,2976,2976
EXEM,9/1/14,-22.95061459,5.727022553,-33.82,-9.63,2880,-22.7845486,4.001868905,-30.33,-13.57,2880,-22.85529169,3.227864485,-28.79,-15.43,2880,2880
EXEM,10/1/14,-16.57785285,5.559308092,-26.96,3.58,2976,-16.78409948,4.119619675,-24.47,-4.39,2976,-17.6085719,3.617892365,-24.22,-7.11,2976,2976
EXEM,11/1/14,-2.921803333,7.117786843,-20.43,14.66,2878,-5.393637941,4.118407552,-16.64,3.6,2878,-6.31517374,3.424984545,-15.78,0.14,2878,929
EXEM,12/1/14,4.668729842,6.499912046,-8.01,22.95,2976,1.968770161,3.381024243,-4.73,10.23,2976,0.837187501,2.429031305,-4.46,6.94,2976,0
EXEM,1/1/15,5.38594758,6.194873278,-6.46,24.26,2976,3.393353496,3.36634502,-1.81,13.84,2976,2.563229168,2.317073067,-0.75,9.72,2976,0
EXEM,2/1/15,-1.882232144,5.820188143,-14.42,14.3,2688,-2.208656995,3.355322854,-10.15,6.85,2688,-2.146175598,2.593639851,-8.5,4.39,2688,0
EXEM,3/1/15,-18.76768816,8.275910637,-31.63,3.22,2976,-17.26996975,6.164443367,-27.44,-3.27,2976,-15.78709342,5.526596254,-25.03,-4.83,2976,0
EXEM,4/1/15,-30.29995835,5.384356329,-40.57,-18.87,2880,-27.41899307,3.358390316,-33.39,-20.2,2880,-25.88987499,2.675674799,-30.81,-21.08,2880,0
EXEM,5/1/15,-33.90021504,3.660890119,-41.5,-25.5,2976,-32.21315522,2.875177347,-37.98,-25.52,2976,-30.58235547,2.429260023,-35.22,-25.38,2976,0
EXEM,6/1/15,-32.15995832,5.839300994,-40.7,-17.8,2880,-30.9901007,4.376738528,-37.04,-20.82,2880,-30.23443398,3.531270566,-35.2,-22.01,2880,0
EXEM,7/1/15,-35.27037969,5.913234231,-43.44,-18.33,2976,-33.96311496,4.448201125,-39.85,-22.83,2976,-33.13397178,3.382299171,-37.52,-24.74,2976,0
EXEM,8/1/15,-33.89785952,6.419022736,-44.82,-15.08,2976,-33.07338369,4.967844681,-41.18,-18.87,2976,-32.65032592,3.791289809,-38.78,-21.38,2976,0
EXEM,9/1/15,-33.16442707,7.744633406,-46.59,-13.37,2880,-32.43601038,5.656233278,-43.01,-19.44,2880,-31.98162153,4.48795333,-40.68,-22.04,2880,0
EXEM,10/1/15,-14.95714383,7.21823318,-31.53,2.86,2976,-16.9749496,4.358735301,-27.84,-7.66,2976,-17.88875674,3.638281948,-27.11,-10.69,2976,0
EXEM,11/1/15,-4.239645461,8.414524206,-23.49,15.83,2877,-6.357897111,6.47865746,-19.39,8.59,2877,-7.891317344,5.573051735,-18.18,3.14,2877,0
EXEM,12/1/15,5.067288306,5.720668202,-5.44,20.41,2976,3.310517473,3.473208168,-3.48,12.42,2976,1.785450269,2.147689883,-2.61,7.52,2976,0
EXEM,1/1/16,4.761602821,5.104594722,-5.43,17.51,2976,3.491377693,3.225968471,-3.01,11.81,2976,2.379889112,2.109748054,-1.76,7.62,2976,0
EXEM,2/1/16,-3.202183903,6.573550089,-16.62,15.85,2784,-3.720129311,5.018961246,-14.34,9.05,2784,-3.488211206,3.965522368,-11.18,5.32,2784,0
EXEM,3/1/16,-17.88555107,4.24739579,-26.78,-6.8,2976,-17.57279569,3.998870167,-27.04,-8.83,2976,-16.16133401,3.55352096,-23.61,-8.25,2976,0
EXEM,4/1/16,-27.97140277,4.792979909,-34.61,-15.75,2880,-28.40914236,5.315669288,-35.49,-15.45,2880,-26.42233334,3.857785158,-32.19,-17.78,2880,0
EXEM,5/1/16,-29.22820903,4.771667363,-35.41,-14.53,2976,-29.13038644,5.389977706,-36.91,-12.58,2976,-28.01904906,3.898277116,-33.26,-16.44,2976,0
EXEM,6/1/16,-32.09176734,3.144001454,-39.34,-25.18,2880,-32.00082291,3.306144372,-39.41,-24.83,2880,-30.76899309,2.600093284,-36.41,-24.93,2880,0
EXEM,7/1/16,-36.4813306,4.73602633,-43.85,-22.06,2976,-36.24245965,4.350325316,-43.07,-25.18,2976,-34.57176414,3.454526568,-40.44,-26.68,2976,0
EXEM,8/1/16,-34.60140456,5.724083306,-43.16,-19.04,2976,-34.43763775,5.40228739,-42.84,-20.53,2976,-33.90423724,4.182953443,-40.41,-23.46,2976,0
EXEM,9/1/16,-33.16236112,5.509996296,-40.14,-17.45,2880,-33.18446878,5.59179796,-40.71,-18.58,2880,-32.7458576,4.265300853,-38.44,-21.7,2880,0
EXEM,10/1/16,-23.97459343,2.949289889,-30.49,-16.34,2976,-22.59645496,3.285199108,-30.08,-14,2976,-23.54831653,2.470877421,-28.83,-17.37,2976,0
EXEM,11/1/16,-11.85007292,4.661043979,-23.68,3.69,2880,-10.25547917,4.492702565,-22.32,0.4,2880,-12.17226389,3.673661649,-21.73,-4.08,2880,0